www.pogodaiklimat.ru

Погода и климат >> Архив погоды >> Гана >> Сефви Беквай


ПОГОДА в Сефви Беквай

  • Прогноз погоды в Сефви Беквай
  • Монитор погоды в Сефви Беквай

АРХИВ ПОГОДЫ в Сефви Беквай

Время (UTC), дата Ветер
(напр.,м/с)
 
Видим.   Явления Облачность Т
(С)
Тd
(С)
f
(%)
Тe
(С)
Тes
(С)
Комфортность P
(гПа)
Po
(гПа)
Тmin
(С)
Tmax
(С)
R
(мм)
R24
(мм)
S
(см)
12 8.09 ЮЗ 1 14 км {дождь} 9/6 400 м
[Sc Ac trans]
+28.2 +23.1 74 +38 +44 очень
душно
1016.0 996.4 3
15 8.09 ЮЗ 3 15 км 9/9 330 м
[Sc]
+26.5 +23.2 82 +36 +37 очень
душно
1014.2 994.5
18 8.09 штиль 0 14 км в посл. час дождь 8/5 330 м
[Cb cap Ac trans Ci sp]
+23.0 +22.3 96 +31 +31 очень
душно
1014.6 994.7 +28.2 6
21 8.09 штиль 0 12 км 9/4 330 м
[Sc Ac trans]
+23.5 +22.8 96 +31 +31 очень
душно
1016.4 996.5
00 9.09 штиль 0 12 км 9/9 330 м
[Sc]
+23.5 +22.7 95 +31 +31 очень
душно
1016.5 996.6
03 9.09 штиль 0 12 км 9/9 300 м
[Sc]
+23.6 +22.8 95 +31 +31 очень
душно
1015.2 995.3
06 9.09 штиль 0 12 км 9/6 300 м
[Sc Ac trans]
+23.6 +22.8 95 +31 +31 очень
душно
1015.7 995.8 +22.8 6
09 9.09 штиль 0 12 км 9/9 270 м
[Sc]
+25.5 +23.4 88 +34 +36 очень
душно
1017.2 997.4
12 9.09 штиль 0 8000 м слаб. дождь 9/8 330 м
[Cu Sc Ac trans]
+26.0 +23.3 85 +35 +39 очень
душно
1015.9 996.1 1
18 9.09 штиль 0 15 км {дождь} 8/6 330 м
[Cu Sc Ac trans]
+26.5 +24.1 87 +37 +37 очень
душно
1013.2 993.5 +29.2 2
21 9.09 ЮВ 2 13 км 9/5 330 м
[Sc Ac trans]
+25.5 +24.3 93 +35 +35 очень
душно
1015.4 995.6
03 10.09 штиль 0 10 км 9/9 300 м
[Sc]
+23.6 +22.8 95 +31 +31 очень
душно
1015.2 995.3
06 10.09 штиль 0 10 км 9/6 330 м
[Sc Ac trans]
+24.5 +23.8 96 +33 +33 очень
душно
1014.9 995.1 +24.0 6
09 10.09 12 км н/о +25.3 +23.1 88 +34 +36 очень
душно
1014.7 994.9
12 10.09 Ю 1 15 км 9/8 300 м
[Sc Ac trans]
+28.5 +24.2 78 +40 +44 очень
душно
1015.0 995.4
18 10.09 штиль 0 16 км {дождь} 8/5 360 м
[Cu Sc Ac trans]
+29.1 +25.2 80 +42 +42 опасность
перегрева
1011.5 992.0 +31.1 0.3
21 10.09 ЮЗ 1 12 км 8/6 330 м
[Sc Ac trans Ci sp]
+26.5 +24.6 89 +37 +37 очень
душно
1013.4 993.7
03 11.09 ЮЗ 3 12 км 9/3 300 м
[Sc Cs]
+24.5 +22.7 90 +32 +32 очень
душно
1012.5 992.7
06 11.09 штиль 0 10 км {дождь} 9/3 300 м
[Sc Ac lent]
+23.9 +22.6 92 +31 +31 очень
душно
1014.2 994.3 +23.6 0.3
09 11.09 З 1 15 км 8/5 330 м
[Cu Sc Ac trans]
+27.0 +23.6 82 +37 +41 очень
душно
1015.1 995.4
12 11.09 З 2 10 км 8/6 360 м
[Cu Sc Ac trans]
+30.2 +23.8 69 +42 +48 опасность
перегрева
1013.8 994.3
15 11.09 З 1 18 км 8/6 450 м
[Cu med, cong Ac trans]
+31.6 +24.8 67 +45 +49 опасность
перегрева
1010.8 991.5
21 11.09 ЮЗ 1 13 км 8/5 330 м
[Sc Ac trans Cs]
+27.0 +24.6 87 +38 +38 очень
душно
1012.9 993.3
00 12.09 ЮЗ 2 13 км 9/9 300 м
[Sc]
+25.4 +23.5 89 +34 +34 очень
душно
1012.9 993.2
03 12.09 штиль 0 12 км 9/9 300 м
[Sc]
+25.0 +23.6 92 +34 +34 очень
душно
1011.9 992.1
09 12.09 штиль 0 14 км 9/9 330 м
[Sc]
+26.0 +23.7 87 +35 +37 очень
душно
1014.6 994.9
12 12.09 ЮЗ 2 15 км 9/8 360 м
[Cu Sc Ac trans]
+29.0 +24.3 76 +41 +44 опасность
перегрева
1013.2 993.7
15 12.09 ЮЗ 2 18 км 8/6 480 м
[Cu med, cong Ac trans]
+32.0 +24.7 65 +45 +48 опасность
перегрева
1010.2 990.9
18 12.09 штиль 0 2000 м сильн. дождь 10/6 300 м
[Sc As op]
+25.7 +24.8 95 +36 +36 очень
душно
1011.7 992.0 +32.1 19
21 12.09 В 1 10 км {дождь} 9/9 300 м
[Sc]
+24.9 +23.9 94 +34 +34 очень
душно
1014.0 994.2
00 13.09 ЮВ 1 10 км {дождь} 9/6 300 м
[Sc Ac trans]
+24.5 +23.8 96 +33 +33 очень
душно
1014.3 994.5 6
03 13.09 штиль 0 10 км 9/9 300 м
[Sc]
+24.5 +23.5 94 +33 +33 очень
душно
1013.1 993.3
06 13.09 штиль 0 10 км в посл. час дождь 9/9 270 м
[Sc]
+24.0 +23.3 96 +32 +32 очень
душно
1014.2 994.3 +23.7 26
09 13.09 12 км {дождь} н/о +24.6 +23.7 95 +33 +36 очень
душно
1015.9 996.0
12 13.09 штиль 0 15 км {дождь} 9/8 330 м
[Cu Sc Ac trans]
+28.5 +24.6 79 +40 +44 очень
душно
1014.3 994.7 2
18 13.09 штиль 0 14 км гроза без осадков 9/8 330 м
[Cb cap Ac trans]
+26.3 +24.3 89 +37 +37 очень
душно
1012.7 993.0 +29.9 4
21 13.09 штиль 0 13 км 9/9 330 м
[Sc]
+24.9 +23.5 92 +34 +34 очень
душно
1013.8 994.0
00 14.09 ЮЗ 1 13 км {гроза} 9/9 330 м
[Sc]
+24.5 +23.4 94 +33 +33 очень
душно
1014.9 995.1
03 14.09 штиль 0 10 км 9/4 330 м
[Sc Ac trans]
+24.2 +23.2 94 +32 +32 очень
душно
1013.0 993.2
09 14.09 штиль 0 14 км 9/6 360 м
[Cu Sc Ac trans Cs]
+27.0 +24.3 85 +38 +41 очень
душно
1015.8 996.1
12 14.09 штиль 0 15 км 9/8 330 м
[Cu Sc Ac trans]
+28.6 +24.6 79 +41 +45 опасность
перегрева
1013.7 994.1
15 14.09 штиль 0 15 км {дождь} 9/5 450 м
[Cu med, cong Cs]
+30.0 +24.6 73 +43 +49 опасность
перегрева
1011.0 991.6
21 14.09 штиль 0 10 км в посл. час дождь {гроза} 9/6 330 м
[Sc Ac trans]
+23.5 +22.2 92 +30 +30 очень
душно
1013.3 993.4
00 15.09 штиль 0 13 км {гроза, дождь} 9/8 330 м
[Sc Ac trans]
+23.4 +22.4 94 +32 +32 очень
душно
1013.6 993.7 6
06 15.09 штиль 0 7000 м дымка 9/9 300 м
[Sc]
+24.0 +23.3 96 +32 +32 очень
душно
1013.1 993.3 +22.9 10
09 15.09 ЮЗ 2 10 км 9/9 360 м
[Cu Sc]
+26.1 +23.9 88 +36 +37 очень
душно
1014.5 994.8

 

Местоположение метеостанции Сефви Беквай (Гана): широта 6.20 долгота -2.33 высота над уровнем моря 172 м.

В архиве по умолчанию представлена погода в Сефви Беквай за последнюю неделю. Архивные данные за месяц целиком и за предыдущие месяцы, начиная с января 2011 года, Вы можете получить, выбрав интересующий диапазон дат из раскрывающегося списка и нажав кнопку "Ввод!".


*Определитесь, кто Вы:
робот инопланетянин человек

Внимание! Время в таблицах - всемирное. Для получения местного времени необходимо прибавить поправку, которая равна 1 ч.

Смотрите также архив погоды в соседних городах и на ближайших метеорологических станциях:

Погода в Кумаси (Гана) (99 км)
Погода в Суняни (Гана) (126 км)
Погода в Адиаке (Кот-д'Ивуар) (147 км)
Погода в Аксиме (Гана) (148 км)
Погода в Аким Ода (Гана) (152 км)
Погода Такоради (Гана) (159 км)
Погода в Уэнчи (Гана) (174 км)
Погода в Солтпонде (Гана) (178 км)
Погода в Абетифи (Гана) (182 км)
Погода в Абиджане (Кот-д'Ивуар) (206 км)

Пояснения к столбцам:

Ветер - указаны скорость ветра в м/с - средняя за 10 мин, порывы в срок и между сроками (в фигурных скобках) и направление, откуда дует ветер: С - северный, СВ - северо-восточный, В - восточный, ЮВ - юго-восточный, Ю - южный, ЮЗ - юго-западный, З - западный, СЗ - северо-западный.
Видимость - горизонтальная дальность видимости в метрах или километрах. При видимости от 1 до 10 км при отсутствии осадков обычно наблюдается дымка, при ухудшении видимости до 1 км и менее - туман. В сухую погоду видимость может ухудшаться дымом, пылью или мглою.
Явления - указаны атмосферные явления, наблюдавшиеся в срок или в последний час перед сроком; фигурными скобками обозначены явления, наблюдавшиеся между сроками (за 1-3 часа до срока); квадратными скобками обозначены град или гололедные отложения с указанием их диаметра в мм.
Облачность - указаны через наклонную черту общая и нижняя облачность в баллах и высота нижней границы облаков в метрах; квадратными скобками обозначены формы облаков: Ci - перистые, Cs - перисто-слоистые, Cc - перисто-кучевые, Ac - высококучевые, As - высокослоистые, Sc - слоисто-кучевые, Ns - слоисто-дождевые, Cu - кучевые, Cb - кучево-дождевые. Подробнее классификацию облаков см. в Атласе облаков (PDF).
T - Температура воздуха - температура, измеренная на высоте 2 м над землей.
Td - Температура точки росы - температура, при понижении до которой содержащийся в воздухе водяной пар достигнет насыщения.
f - Относительная влажность воздуха - влажноcть воздуха, измеренная на высоте 2 м над землей.
Te - Эффективная температура - температура, которую ощущает одетый по сезону человек в тени. Характеристика душности погоды. При расчете учитывается влияние влажности воздуха и скорости ветра на теплоощущения человека.
Tes - Эффективная температура на солнце - температура, которую ощущает человек, с поправкой на солнечный нагрев. Характеристика знойности погоды. Зависит от высоты солнца над горизонтом, облачности и скорости ветра. Ночью, в пасмурную погоду, а также при ветре 12 м/с и более поправка равна нулю.
P - Атмосферное давление - приведенное к уровню моря атмосферное давление.
Po - Атмосферное давление - измеренное на уровне метеостанции атмосферное давление.
Tmin - Минимальная температура - минимум температуры воздуха на высоте 2 м над землей.
Tmax - Максимальная температура - максимум температуры воздуха на высоте 2 м над землей.
R - Количество осадков - Количество выпавших осадков за период времени, мм. При наведении курсора мыши на число - период времени, за который выпало указанное количество осадков.
R24 - Количество осадков - Количество выпавших осадков за 24 часа, мм.
S - Снежный покров - Высота снежного покрова, см. При наведении курсора мыши на число - состояние снежного покрова и степень покрытия местности в баллах.